Home   Weather   Farmington   Past weeks

Flag for USA Past Weather in Farmington, New Mexico, USA — Yesterday and Last 2 Weeks

Now
68 °F

Passing clouds.


Feels Like: 68 °F
Forecast: 49 / 80 °F
Wind: 3 mph from North

Location: Four Corners Regional Airport

Current Time: Sep 27, 2016 at 9:29:57 PM

Latest Report: Sep 27, 2016 at 8:53 PM


Visibility: 10 mi

Pressure: 30.06 "Hg (24.90 "Hg at 1617m altitude)

Humidity: 28%

Dew Point: 34 °F

Location of FarmingtonLocation

Past Weather in Farmington — Graph

°F

Farmington Temperature Yesterday

Maximum temperature yesterday: 75 °F (at 4:53 PM)
Minimum temperature yesterday: 47 °F (at 3:53 AM)
Average temperature yesterday: 60 °F

High & Low Weather Summary for the Past Weeks

 TemperatureHumidityPressure
High88 °F (Sep 22, 3:53 PM)97% (Sep 21, 6:53 AM)30.38 "Hg (Sep 21, 6:53 AM)
Low36 °F (Sep 24, 5:53 AM)2% (Sep 19, 3:53 PM)29.65 "Hg (Sep 22, 4:53 PM)
Average62 °F40%30.06 "Hg
* Reported Sep 12 7:53 PM — Sep 27 7:53 PM, Farmington, Weather by CustomWeather, © 2016

Note: Actual official high and low records may vary slightly from our data, if they occured in-between our weather recording intervals... More about our weather records

Advertising

Farmington Weather History for the Previous 24 Hours

Scroll right to see more
 ConditionsComfort  
Time TempWeatherWind HumidityBarometerVisibility
7:53 PM
Tue, Sep 27
71 °FPassing clouds.3 mph24%30.06 "Hg10 mi
6:53 PM73 °FPartly sunny.3 mph22%30.06 "Hg10 mi
5:53 PM74 °FSunny.7 mph19%30.05 "Hg10 mi
4:53 PM77 °FSunny.3 mph16%30.05 "Hg10 mi
3:53 PM75 °FPassing clouds.9 mph19%30.07 "Hg10 mi
2:53 PM74 °FPassing clouds.8 mph20%30.09 "Hg10 mi
1:53 PM73 °FPassing clouds.N/A21%30.11 "Hg10 mi
12:53 PM69 °FSunny.6 mph24%30.14 "Hg10 mi
11:53 AM67 °FSunny.8 mph29%30.17 "Hg10 mi
10:53 AM62 °FSunny.5 mph38%30.20 "Hg10 mi
9:53 AM57 °FSunny.5 mph49%30.22 "Hg10 mi
8:53 AM53 °FSunny.6 mph55%30.22 "Hg10 mi
7:53 AM48 °FSunny.8 mph66%30.22 "Hg10 mi
6:53 AM46 °FClear.10 mph71%30.21 "Hg10 mi
5:53 AM46 °FClear.6 mph71%30.19 "Hg10 mi
4:53 AM46 °FClear.7 mph71%30.19 "Hg10 mi
3:53 AM49 °FClear.8 mph64%30.19 "Hg10 mi
2:53 AM49 °FClear.3 mph57%30.21 "Hg10 mi
1:53 AM53 °FClear.5 mph52%30.19 "Hg10 mi
12:53 AM56 °FClear.8 mph40%30.19 "Hg10 mi
11:53 PM
Mon, Sep 26
58 °FClear.6 mph38%30.18 "Hg10 mi
10:53 PM62 °FClear.7 mph32%30.17 "Hg10 mi
9:53 PM60 °FClear.9 mph41%30.19 "Hg10 mi
Weather by CustomWeather, © 2016

See weather overviewHow to use our weather pages